Time,TemperatureF,DewpointF,PressureIn,WindDirection,WindDirectionDegrees,WindSpeedMPH,WindSpeedGustMPH,Humidity,HourlyPrecipIn,Conditions,Clouds,dailyrainin,SoftwareType,DateUTC
2013-02-06 00:00:00,39.2,28.7,29.97,North,0,0.0,0.0,66,0.00,,,0.00,WUHU216HW,2013-02-06 05:00:00,
2013-02-06 00:05:00,39.2,28.7,29.97,North,0,0.0,0.0,66,0.00,,,0.00,WUHU216HW,2013-02-06 05:05:00,
2013-02-06 00:10:00,39.1,29.0,29.97,North,0,0.0,0.0,67,0.00,,,0.00,WUHU216HW,2013-02-06 05:10:00,
2013-02-06 00:15:00,38.9,28.8,29.97,North,0,0.0,0.0,67,0.00,,,0.00,WUHU216HW,2013-02-06 05:15:00,
2013-02-06 00:20:00,38.7,28.6,29.97,North,0,0.0,0.0,67,0.00,,,0.00,WUHU216HW,2013-02-06 05:20:00,
2013-02-06 00:25:00,38.3,28.3,29.97,North,0,0.0,0.0,67,0.00,,,0.00,WUHU216HW,2013-02-06 05:25:00,
2013-02-06 00:30:00,38.2,28.2,29.97,North,0,0.0,0.0,67,0.00,,,0.00,WUHU216HW,2013-02-06 05:30:00,
2013-02-06 00:35:00,38.0,28.4,29.97,North,0,0.0,0.0,68,0.00,,,0.00,WUHU216HW,2013-02-06 05:35:00,
2013-02-06 00:40:00,37.8,28.2,29.97,North,0,0.0,0.0,68,0.00,,,0.00,WUHU216HW,2013-02-06 05:40:00,
2013-02-06 00:45:00,37.6,28.0,29.97,North,0,0.0,0.0,68,0.00,,,0.00,WUHU216HW,2013-02-06 05:45:00,
2013-02-06 00:50:00,37.4,27.9,29.97,North,0,0.0,0.0,68,0.00,,,0.00,WUHU216HW,2013-02-06 05:50:00,
2013-02-06 00:55:00,37.4,27.9,29.97,North,0,0.0,0.0,68,0.00,,,0.00,WUHU216HW,2013-02-06 05:55:00,
2013-02-06 01:00:00,37.3,28.1,29.97,North,0,0.0,0.0,69,0.00,,,0.00,WUHU216HW,2013-02-06 06:00:00,
2013-02-06 01:05:00,36.7,27.6,29.97,North,0,0.0,0.0,69,0.00,,,0.00,WUHU216HW,2013-02-06 06:05:00,
2013-02-06 01:10:00,36.4,27.2,29.97,North,0,0.0,0.0,69,0.00,,,0.00,WUHU216HW,2013-02-06 06:10:00,
2013-02-06 01:15:00,36.4,27.2,29.97,North,0,0.0,0.0,69,0.00,,,0.00,WUHU216HW,2013-02-06 06:15:00,
2013-02-06 01:20:00,36.4,27.2,29.97,North,0,0.0,0.0,69,0.00,,,0.00,WUHU216HW,2013-02-06 06:20:00,
2013-02-06 01:25:00,36.4,27.2,29.97,North,0,0.0,0.0,69,0.00,,,0.00,WUHU216HW,2013-02-06 06:25:00,
2013-02-06 01:30:00,36.4,27.2,29.97,North,0,0.0,0.0,69,0.00,,,0.00,WUHU216HW,2013-02-06 06:30:00,
2013-02-06 01:35:00,36.4,27.2,29.97,North,0,0.0,0.0,69,0.00,,,0.00,WUHU216HW,2013-02-06 06:35:00,
2013-02-06 01:40:00,36.4,27.2,29.97,North,0,0.0,0.0,69,0.00,,,0.00,WUHU216HW,2013-02-06 06:40:00,
2013-02-06 01:45:00,36.4,27.2,29.97,North,0,0.0,0.0,69,0.00,,,0.00,WUHU216HW,2013-02-06 06:45:00,
2013-02-06 01:50:00,36.2,27.0,29.97,North,0,0.0,0.0,69,0.00,,,0.00,WUHU216HW,2013-02-06 06:50:00,
2013-02-06 01:55:00,36.2,27.0,29.97,North,0,0.0,0.0,69,0.00,,,0.00,WUHU216HW,2013-02-06 06:55:00,
2013-02-06 02:00:00,36.2,27.0,29.97,North,0,0.0,0.0,69,0.00,,,0.00,WUHU216HW,2013-02-06 07:00:00,
2013-02-06 02:05:00,36.0,26.8,29.97,North,0,0.0,0.0,69,0.00,,,0.00,WUHU216HW,2013-02-06 07:05:00,
2013-02-06 02:10:00,36.0,26.8,29.98,North,0,0.0,0.0,69,0.00,,,0.00,WUHU216HW,2013-02-06 07:10:00,
2013-02-06 02:15:00,35.6,26.5,29.98,North,0,0.0,0.0,69,0.00,,,0.00,WUHU216HW,2013-02-06 07:15:00,
2013-02-06 02:20:00,35.3,25.7,29.98,North,0,0.0,0.0,68,0.00,,,0.00,WUHU216HW,2013-02-06 07:20:00,
2013-02-06 02:25:00,35.3,25.7,29.98,North,0,0.0,0.0,68,0.00,,,0.00,WUHU216HW,2013-02-06 07:25:00,
2013-02-06 02:30:00,35.3,25.7,29.98,North,0,0.0,0.0,68,0.00,,,0.00,WUHU216HW,2013-02-06 07:30:00,
2013-02-06 02:35:00,35.5,25.9,29.98,North,0,0.0,0.0,68,0.00,,,0.00,WUHU216HW,2013-02-06 07:35:00,
2013-02-06 02:40:00,35.3,25.7,29.98,North,0,0.0,0.0,68,0.00,,,0.00,WUHU216HW,2013-02-06 07:40:00,
2013-02-06 02:45:00,34.9,25.4,29.98,North,0,0.0,0.0,68,0.00,,,0.00,WUHU216HW,2013-02-06 07:45:00,
2013-02-06 02:50:00,34.7,25.2,29.98,North,0,0.0,0.0,68,0.00,,,0.00,WUHU216HW,2013-02-06 07:50:00,
2013-02-06 02:55:00,34.7,25.2,29.98,North,0,0.0,0.0,68,0.00,,,0.00,WUHU216HW,2013-02-06 07:55:00,
2013-02-06 03:00:00,34.6,25.0,29.98,North,0,0.0,0.0,68,0.00,,,0.00,WUHU216HW,2013-02-06 08:00:00,
2013-02-06 03:05:00,34.4,24.8,29.98,North,0,0.0,0.0,68,0.00,,,0.00,WUHU216HW,2013-02-06 08:05:00,
2013-02-06 03:10:00,34.2,24.7,29.98,North,0,0.0,0.0,68,0.00,,,0.00,WUHU216HW,2013-02-06 08:10:00,
2013-02-06 03:15:00,34.2,24.3,29.98,North,0,0.0,0.0,67,0.00,,,0.00,WUHU216HW,2013-02-06 08:15:00,
2013-02-06 03:20:00,34.0,24.1,29.98,North,0,0.0,0.0,67,0.00,,,0.00,WUHU216HW,2013-02-06 08:20:00,
2013-02-06 03:25:00,34.2,23.9,29.98,North,0,0.0,0.0,66,0.00,,,0.00,WUHU216HW,2013-02-06 08:25:00,
2013-02-06 03:30:00,34.2,24.3,29.98,North,0,0.0,0.0,67,0.00,,,0.00,WUHU216HW,2013-02-06 08:30:00,
2013-02-06 03:35:00,34.2,24.3,29.98,North,0,0.0,0.0,67,0.00,,,0.00,WUHU216HW,2013-02-06 08:35:00,
2013-02-06 03:40:00,34.0,24.1,29.98,North,0,0.0,0.0,67,0.00,,,0.00,WUHU216HW,2013-02-06 08:40:00,
2013-02-06 03:45:00,33.8,23.6,29.98,North,0,0.0,0.0,66,0.00,,,0.00,WUHU216HW,2013-02-06 08:45:00,
2013-02-06 03:50:00,33.8,23.6,29.98,North,0,0.0,0.0,66,0.00,,,0.00,WUHU216HW,2013-02-06 08:50:00,
2013-02-06 03:55:00,33.8,23.9,29.99,North,0,0.0,0.0,67,0.00,,,0.00,WUHU216HW,2013-02-06 08:55:00,
2013-02-06 04:00:00,34.0,23.8,29.99,North,0,0.0,0.0,66,0.00,,,0.00,WUHU216HW,2013-02-06 09:00:00,
2013-02-06 04:05:00,33.7,23.4,29.99,North,0,0.0,0.0,66,0.00,,,0.00,WUHU216HW,2013-02-06 09:05:00,
2013-02-06 04:10:00,33.7,23.4,29.99,North,0,0.0,0.0,66,0.00,,,0.00,WUHU216HW,2013-02-06 09:10:00,
2013-02-06 04:15:00,33.7,23.8,29.99,North,0,0.0,0.0,67,0.00,,,0.00,WUHU216HW,2013-02-06 09:15:00,
2013-02-06 04:20:00,33.5,23.6,29.99,North,0,0.0,0.0,67,0.00,,,0.00,WUHU216HW,2013-02-06 09:20:00,
2013-02-06 04:25:00,33.5,23.6,29.99,North,0,0.0,0.0,67,0.00,,,0.00,WUHU216HW,2013-02-06 09:25:00,
2013-02-06 04:30:00,33.3,22.8,30.00,North,0,0.0,0.0,65,0.00,,,0.00,WUHU216HW,2013-02-06 09:30:00,
2013-02-06 04:35:00,33.1,23.0,30.00,North,0,0.0,0.0,66,0.00,,,0.00,WUHU216HW,2013-02-06 09:35:00,
2013-02-06 04:40:00,32.9,22.4,30.00,North,0,0.0,0.0,65,0.00,,,0.00,WUHU216HW,2013-02-06 09:40:00,
2013-02-06 04:45:00,32.9,22.4,30.00,North,0,0.0,0.0,65,0.00,,,0.00,WUHU216HW,2013-02-06 09:45:00,
2013-02-06 04:50:00,32.8,21.9,30.00,North,0,0.0,0.0,64,0.00,,,0.00,WUHU216HW,2013-02-06 09:50:00,
2013-02-06 04:55:00,32.8,21.2,30.01,North,0,0.0,0.0,62,0.00,,,0.00,WUHU216HW,2013-02-06 09:55:00,
2013-02-06 05:00:00,32.6,21.3,30.01,North,0,0.0,0.0,63,0.00,,,0.00,WUHU216HW,2013-02-06 10:00:00,
2013-02-06 05:05:00,32.6,21.3,30.01,North,0,0.0,0.0,63,0.00,,,0.00,WUHU216HW,2013-02-06 10:05:00,
2013-02-06 05:10:00,32.6,20.6,30.01,North,0,0.0,0.0,61,0.00,,,0.00,WUHU216HW,2013-02-06 10:10:00,
2013-02-06 05:15:00,32.4,20.5,30.02,North,0,0.0,0.0,61,0.00,,,0.00,WUHU216HW,2013-02-06 10:15:00,
2013-02-06 05:20:00,32.2,19.1,30.02,North,0,0.0,0.0,58,0.00,,,0.00,WUHU216HW,2013-02-06 10:20:00,
2013-02-06 05:25:00,32.2,20.4,30.02,North,0,0.0,0.0,61,0.00,,,0.00,WUHU216HW,2013-02-06 10:25:00,
2013-02-06 05:30:00,32.2,19.5,30.02,North,0,0.0,0.0,59,0.00,,,0.00,WUHU216HW,2013-02-06 10:30:00,
2013-02-06 05:35:00,32.2,18.3,30.02,North,0,0.0,0.0,56,0.00,,,0.00,WUHU216HW,2013-02-06 10:35:00,
2013-02-06 05:40:00,32.2,16.5,30.03,North,0,0.0,0.0,52,0.00,,,0.00,WUHU216HW,2013-02-06 10:40:00,
2013-02-06 05:45:00,32.2,18.3,30.03,North,0,0.0,0.0,56,0.00,,,0.00,WUHU216HW,2013-02-06 10:45:00,
2013-02-06 05:50:00,32.0,17.2,30.04,North,0,0.0,0.0,54,0.00,,,0.00,WUHU216HW,2013-02-06 10:50:00,
2013-02-06 05:55:00,31.7,16.5,30.04,North,0,0.0,0.0,53,0.00,,,0.00,WUHU216HW,2013-02-06 10:55:00,
2013-02-06 06:00:00,31.7,15.1,30.04,North,0,0.0,0.0,50,0.00,,,0.00,WUHU216HW,2013-02-06 11:00:00,
2013-02-06 06:05:00,31.9,13.8,30.05,North,0,0.0,0.0,47,0.00,,,0.00,WUHU216HW,2013-02-06 11:05:00,
2013-02-06 06:10:00,32.2,13.6,30.05,North,0,0.0,0.0,46,0.00,,,0.00,WUHU216HW,2013-02-06 11:10:00,
2013-02-06 06:15:00,32.8,17.0,30.05,North,0,0.0,0.0,52,0.00,,,0.00,WUHU216HW,2013-02-06 11:15:00,
2013-02-06 06:20:00,32.8,18.7,30.05,North,0,0.0,0.0,56,0.00,,,0.00,WUHU216HW,2013-02-06 11:20:00,
2013-02-06 06:25:00,32.8,20.0,30.06,North,0,0.0,0.0,59,0.00,,,0.00,WUHU216HW,2013-02-06 11:25:00,
2013-02-06 06:30:00,32.6,19.5,30.06,North,0,0.0,0.0,58,0.00,,,0.00,WUHU216HW,2013-02-06 11:30:00,
2013-02-06 06:35:00,32.4,18.4,30.06,North,0,0.0,0.0,56,0.00,,,0.00,WUHU216HW,2013-02-06 11:35:00,
2013-02-06 06:40:00,32.4,18.8,30.07,North,0,0.0,0.0,57,0.00,,,0.00,WUHU216HW,2013-02-06 11:40:00,
2013-02-06 06:45:00,32.6,19.9,30.07,North,0,0.0,0.0,59,0.00,,,0.00,WUHU216HW,2013-02-06 11:45:00,
2013-02-06 06:50:00,32.8,20.4,30.07,North,0,0.0,0.0,60,0.00,,,0.00,WUHU216HW,2013-02-06 11:50:00,
2013-02-06 06:55:00,32.6,19.9,30.07,North,0,0.0,0.0,59,0.00,,,0.00,WUHU216HW,2013-02-06 11:55:00,
2013-02-06 07:00:00,32.6,18.5,30.07,North,0,0.0,0.0,56,0.00,,,0.00,WUHU216HW,2013-02-06 12:00:00,
2013-02-06 07:05:00,32.6,17.7,30.08,North,0,0.0,0.0,54,0.00,,,0.00,WUHU216HW,2013-02-06 12:05:00,
2013-02-06 07:10:00,32.8,18.7,30.08,North,0,0.0,0.0,56,0.00,,,0.00,WUHU216HW,2013-02-06 12:10:00,
2013-02-06 07:15:00,32.9,19.7,30.08,North,0,0.0,0.0,58,0.00,,,0.00,WUHU216HW,2013-02-06 12:15:00,
2013-02-06 07:20:00,32.8,20.0,30.09,North,0,0.0,0.0,59,0.00,,,0.00,WUHU216HW,2013-02-06 12:20:00,
2013-02-06 07:26:00,32.4,18.8,30.09,North,0,0.0,0.0,57,0.00,,,0.00,WUHU216HW,2013-02-06 12:26:00,
2013-02-06 07:31:00,32.2,17.8,30.09,North,0,0.0,0.0,55,0.00,,,0.00,WUHU216HW,2013-02-06 12:31:00,
2013-02-06 07:36:00,32.0,16.7,30.10,North,0,0.0,0.0,53,0.00,,,0.00,WUHU216HW,2013-02-06 12:36:00,
2013-02-06 07:41:00,32.0,15.5,30.10,North,0,0.0,0.0,50,0.00,,,0.00,WUHU216HW,2013-02-06 12:41:00,
2013-02-06 07:46:00,32.2,17.4,30.10,North,0,0.0,0.0,54,0.00,,,0.00,WUHU216HW,2013-02-06 12:46:00,
2013-02-06 07:51:00,32.4,18.4,30.11,North,0,0.0,0.0,56,0.00,,,0.00,WUHU216HW,2013-02-06 12:51:00,
2013-02-06 07:56:00,32.6,18.5,30.11,North,0,0.0,0.0,56,0.00,,,0.00,WUHU216HW,2013-02-06 12:56:00,
2013-02-06 08:01:00,32.8,17.8,30.11,North,0,0.0,0.0,54,0.00,,,0.00,WUHU216HW,2013-02-06 13:01:00,
2013-02-06 08:06:00,32.9,16.8,30.12,North,0,0.0,0.0,51,0.00,,,0.00,WUHU216HW,2013-02-06 13:06:00,
2013-02-06 08:11:00,33.5,13.8,30.12,North,0,0.0,0.0,44,0.00,,,0.00,WUHU216HW,2013-02-06 13:11:00,
2013-02-06 08:16:00,34.2,14.0,30.12,North,0,0.0,0.0,43,0.00,,,0.00,WUHU216HW,2013-02-06 13:16:00,
2013-02-06 08:21:00,34.9,15.1,30.12,North,0,0.0,0.0,44,0.00,,,0.00,WUHU216HW,2013-02-06 13:21:00,
2013-02-06 08:26:00,35.6,17.8,30.12,North,0,0.0,0.0,48,0.00,,,0.00,WUHU216HW,2013-02-06 13:26:00,
2013-02-06 08:31:00,36.0,19.3,30.13,North,0,0.0,0.0,50,0.00,,,0.00,WUHU216HW,2013-02-06 13:31:00,
2013-02-06 08:36:00,36.7,19.9,30.13,North,0,0.0,0.0,50,0.00,,,0.00,WUHU216HW,2013-02-06 13:36:00,
2013-02-06 08:41:00,38.0,23.1,30.13,North,0,0.0,0.0,55,0.00,,,0.00,WUHU216HW,2013-02-06 13:41:00,
2013-02-06 08:46:00,38.9,26.1,30.13,North,0,0.0,0.0,60,0.00,,,0.00,WUHU216HW,2013-02-06 13:46:00,
2013-02-06 08:51:00,39.6,27.2,30.13,North,0,0.0,0.0,61,0.00,,,0.00,WUHU216HW,2013-02-06 13:51:00,
2013-02-06 08:56:00,40.1,28.5,30.14,North,0,0.0,0.0,63,0.00,,,0.00,WUHU216HW,2013-02-06 13:56:00,
2013-02-06 09:01:00,40.7,29.1,30.14,North,0,0.0,0.0,63,0.00,,,0.00,WUHU216HW,2013-02-06 14:01:00,
2013-02-06 09:06:00,41.4,29.7,30.14,North,0,0.0,0.0,63,0.00,,,0.00,WUHU216HW,2013-02-06 14:06:00,
2013-02-06 09:11:00,42.1,31.6,30.14,North,0,0.0,0.0,66,0.00,,,0.00,WUHU216HW,2013-02-06 14:11:00,
2013-02-06 09:16:00,42.8,32.2,30.14,North,0,0.0,0.0,66,0.00,,,0.00,WUHU216HW,2013-02-06 14:16:00,
2013-02-06 09:21:00,43.2,32.6,30.14,North,0,0.0,0.0,66,0.00,,,0.00,WUHU216HW,2013-02-06 14:21:00,
2013-02-06 09:26:00,43.6,33.0,30.14,North,0,0.0,0.0,66,0.00,,,0.00,WUHU216HW,2013-02-06 14:26:00,
2013-02-06 09:31:00,44.1,33.5,30.14,North,0,0.0,0.0,66,0.00,,,0.00,WUHU216HW,2013-02-06 14:31:00,
2013-02-06 09:36:00,44.6,33.9,30.14,North,0,0.0,0.0,66,0.00,,,0.00,WUHU216HW,2013-02-06 14:36:00,
2013-02-06 09:41:00,45.4,34.3,30.14,North,0,0.0,0.0,65,0.00,,,0.00,WUHU216HW,2013-02-06 14:41:00,
2013-02-06 09:46:00,46.1,34.9,30.14,North,0,0.0,0.0,65,0.00,,,0.00,WUHU216HW,2013-02-06 14:46:00,
2013-02-06 09:51:00,46.8,34.8,30.15,North,0,0.0,0.0,63,0.00,,,0.00,WUHU216HW,2013-02-06 14:51:00,
2013-02-06 09:56:00,47.5,35.6,30.14,North,0,0.0,0.0,63,0.00,,,0.00,WUHU216HW,2013-02-06 14:56:00,
2013-02-06 10:01:00,47.9,35.5,30.14,North,0,0.0,0.0,62,0.00,,,0.00,WUHU216HW,2013-02-06 15:01:00,
2013-02-06 10:06:00,48.2,35.5,30.15,North,0,0.0,0.0,61,0.00,,,0.00,WUHU216HW,2013-02-06 15:06:00,
2013-02-06 10:11:00,49.0,35.7,30.15,North,0,0.0,0.0,60,0.00,,,0.00,WUHU216HW,2013-02-06 15:11:00,
2013-02-06 10:16:00,49.3,34.8,30.15,North,0,0.0,0.0,57,0.00,,,0.00,WUHU216HW,2013-02-06 15:16:00,
2013-02-06 10:21:00,49.7,35.9,30.14,North,0,0.0,0.0,59,0.00,,,0.00,WUHU216HW,2013-02-06 15:21:00,
2013-02-06 10:26:00,50.2,34.7,30.14,North,0,0.0,0.0,55,0.00,,,0.00,WUHU216HW,2013-02-06 15:26:00,
2013-02-06 10:31:00,50.8,35.1,30.14,North,0,0.0,0.0,55,0.00,,,0.00,WUHU216HW,2013-02-06 15:31:00,
2013-02-06 10:36:00,51.1,35.0,30.15,North,0,0.0,0.0,54,0.00,,,0.00,WUHU216HW,2013-02-06 15:36:00,
2013-02-06 10:41:00,51.5,34.4,30.15,North,0,0.0,0.0,52,0.00,,,0.00,WUHU216HW,2013-02-06 15:41:00,
2013-02-06 10:46:00,51.5,33.5,30.15,North,0,0.0,0.0,50,0.00,,,0.00,WUHU216HW,2013-02-06 15:46:00,
2013-02-06 10:51:00,51.8,33.3,30.15,North,0,0.0,0.0,49,0.00,,,0.00,WUHU216HW,2013-02-06 15:51:00,
2013-02-06 10:56:00,52.2,33.6,30.15,North,0,0.0,0.0,49,0.00,,,0.00,WUHU216HW,2013-02-06 15:56:00,
2013-02-06 11:01:00,52.6,32.9,30.15,North,0,0.0,0.0,47,0.00,,,0.00,WUHU216HW,2013-02-06 16:01:00,
2013-02-06 11:06:00,52.6,33.4,30.15,North,0,0.0,0.0,48,0.00,,,0.00,WUHU216HW,2013-02-06 16:06:00,
2013-02-06 11:11:00,52.7,34.7,30.15,North,0,0.0,0.0,50,0.00,,,0.00,WUHU216HW,2013-02-06 16:11:00,
2013-02-06 11:16:00,53.3,34.6,30.15,North,0,0.0,0.0,49,0.00,,,0.00,WUHU216HW,2013-02-06 16:16:00,
2013-02-06 11:21:00,53.6,34.9,30.15,North,0,0.0,0.0,49,0.00,,,0.00,WUHU216HW,2013-02-06 16:21:00,
2013-02-06 11:26:00,53.8,32.9,30.15,North,0,0.0,0.0,45,0.00,,,0.00,WUHU216HW,2013-02-06 16:26:00,
2013-02-06 11:31:00,53.8,31.7,30.15,North,0,0.0,0.0,43,0.00,,,0.00,WUHU216HW,2013-02-06 16:31:00,
2013-02-06 11:36:00,53.8,32.9,30.15,North,0,0.0,0.0,45,0.00,,,0.00,WUHU216HW,2013-02-06 16:36:00,
2013-02-06 11:41:00,54.2,31.5,30.15,North,0,0.0,0.0,42,0.00,,,0.00,WUHU216HW,2013-02-06 16:41:00,
2013-02-06 11:46:00,54.2,33.1,30.14,North,0,0.0,0.0,45,0.00,,,0.00,WUHU216HW,2013-02-06 16:46:00,
2013-02-06 11:51:00,54.7,30.9,30.14,North,0,0.0,0.0,40,0.00,,,0.00,WUHU216HW,2013-02-06 16:51:00,
2013-02-06 11:56:00,54.9,32.7,30.15,North,0,0.0,0.0,43,0.00,,,0.00,WUHU216HW,2013-02-06 16:56:00,
2013-02-06 12:01:00,55.1,31.1,30.15,North,0,0.0,0.0,40,0.00,,,0.00,WUHU216HW,2013-02-06 17:01:00,
2013-02-06 12:06:00,55.4,31.5,30.15,North,0,0.0,0.0,40,0.00,,,0.00,WUHU216HW,2013-02-06 17:06:00,
2013-02-06 12:11:00,55.6,30.2,30.15,North,0,0.0,0.0,38,0.00,,,0.00,WUHU216HW,2013-02-06 17:11:00,
2013-02-06 12:16:00,55.6,31.0,30.15,North,0,0.0,0.0,39,0.00,,,0.00,WUHU216HW,2013-02-06 17:16:00,
2013-02-06 12:21:00,55.8,30.4,30.14,North,0,0.0,0.0,38,0.00,,,0.00,WUHU216HW,2013-02-06 17:21:00,
2013-02-06 12:26:00,56.2,29.3,30.14,North,0,0.0,0.0,36,0.00,,,0.00,WUHU216HW,2013-02-06 17:26:00,
2013-02-06 12:31:00,56.2,31.4,30.14,North,0,0.0,0.0,39,0.00,,,0.00,WUHU216HW,2013-02-06 17:31:00,
2013-02-06 12:36:00,56.5,31.8,30.14,North,0,0.0,0.0,39,0.00,,,0.00,WUHU216HW,2013-02-06 17:36:00,
2013-02-06 12:41:00,56.7,31.2,30.14,North,0,0.0,0.0,38,0.00,,,0.00,WUHU216HW,2013-02-06 17:41:00,
2013-02-06 12:46:00,56.9,30.7,30.14,North,0,0.0,0.0,37,0.00,,,0.00,WUHU216HW,2013-02-06 17:46:00,
2013-02-06 12:51:00,56.7,29.8,30.13,North,0,0.0,0.0,36,0.00,,,0.00,WUHU216HW,2013-02-06 17:51:00,
2013-02-06 12:56:00,56.7,28.5,30.13,North,0,0.0,0.0,34,0.00,,,0.00,WUHU216HW,2013-02-06 17:56:00,
2013-02-06 13:01:00,57.1,30.2,30.13,North,0,0.0,0.0,36,0.00,,,0.00,WUHU216HW,2013-02-06 18:01:00,
2013-02-06 13:06:00,57.1,30.2,30.13,North,0,0.0,0.0,36,0.00,,,0.00,WUHU216HW,2013-02-06 18:06:00,
2013-02-06 13:11:00,57.2,30.3,30.13,North,0,0.0,0.0,36,0.00,,,0.00,WUHU216HW,2013-02-06 18:11:00,
2013-02-06 13:16:00,57.2,29.6,30.13,North,0,0.0,0.0,35,0.00,,,0.00,WUHU216HW,2013-02-06 18:16:00,
2013-02-06 13:21:00,57.2,28.9,30.13,North,0,0.0,0.0,34,0.00,,,0.00,WUHU216HW,2013-02-06 18:21:00,
2013-02-06 13:26:00,57.4,27.6,30.13,North,0,0.0,0.0,32,0.00,,,0.00,WUHU216HW,2013-02-06 18:26:00,
2013-02-06 13:31:00,57.4,27.6,30.13,North,0,0.0,0.0,32,0.00,,,0.00,WUHU216HW,2013-02-06 18:31:00,
2013-02-06 13:36:00,57.4,28.4,30.12,North,0,0.0,0.0,33,0.00,,,0.00,WUHU216HW,2013-02-06 18:36:00,
2013-02-06 13:41:00,57.8,25.7,30.12,North,0,0.0,0.0,29,0.00,,,0.00,WUHU216HW,2013-02-06 18:41:00,
2013-02-06 13:46:00,57.8,28.0,30.12,North,0,0.0,0.0,32,0.00,,,0.00,WUHU216HW,2013-02-06 18:46:00,
2013-02-06 13:51:00,58.0,28.2,30.12,North,0,0.0,0.0,32,0.00,,,0.00,WUHU216HW,2013-02-06 18:51:00,
2013-02-06 13:56:00,58.0,28.2,30.12,North,0,0.0,0.0,32,0.00,,,0.00,WUHU216HW,2013-02-06 18:56:00,
2013-02-06 14:01:00,57.8,29.4,30.12,North,0,0.0,0.0,34,0.00,,,0.00,WUHU216HW,2013-02-06 19:01:00,
2013-02-06 14:06:00,58.0,28.9,30.12,North,0,0.0,0.0,33,0.00,,,0.00,WUHU216HW,2013-02-06 19:06:00,
2013-02-06 14:11:00,58.1,27.6,30.12,North,0,0.0,0.0,31,0.00,,,0.00,WUHU216HW,2013-02-06 19:11:00,
2013-02-06 14:16:00,58.0,28.2,30.12,North,0,0.0,0.0,32,0.00,,,0.00,WUHU216HW,2013-02-06 19:16:00,
2013-02-06 14:21:00,57.8,27.3,30.12,North,0,0.0,0.0,31,0.00,,,0.00,WUHU216HW,2013-02-06 19:21:00,
2013-02-06 14:26:00,58.0,28.9,30.12,North,0,0.0,0.0,33,0.00,,,0.00,WUHU216HW,2013-02-06 19:26:00,
2013-02-06 14:31:00,58.0,27.5,30.12,North,0,0.0,0.0,31,0.00,,,0.00,WUHU216HW,2013-02-06 19:31:00,
2013-02-06 14:36:00,58.0,27.5,30.12,North,0,0.0,0.0,31,0.00,,,0.00,WUHU216HW,2013-02-06 19:36:00,
2013-02-06 14:41:00,58.1,28.4,30.12,North,0,0.0,0.0,32,0.00,,,0.00,WUHU216HW,2013-02-06 19:41:00,
2013-02-06 14:46:00,58.1,28.4,30.12,North,0,0.0,0.0,32,0.00,,,0.00,WUHU216HW,2013-02-06 19:46:00,
2013-02-06 14:51:00,58.1,29.0,30.12,North,0,0.0,0.0,33,0.00,,,0.00,WUHU216HW,2013-02-06 19:51:00,
2013-02-06 14:56:00,58.1,27.6,30.12,North,0,0.0,0.0,31,0.00,,,0.00,WUHU216HW,2013-02-06 19:56:00,
2013-02-06 15:01:00,58.0,28.9,30.13,North,0,0.0,0.0,33,0.00,,,0.00,WUHU216HW,2013-02-06 20:01:00,
2013-02-06 15:06:00,58.0,28.9,30.13,North,0,0.0,0.0,33,0.00,,,0.00,WUHU216HW,2013-02-06 20:06:00,
2013-02-06 15:11:00,58.0,28.9,30.13,North,0,0.0,0.0,33,0.00,,,0.00,WUHU216HW,2013-02-06 20:11:00,
2013-02-06 15:16:00,58.0,28.9,30.13,North,0,0.0,0.0,33,0.00,,,0.00,WUHU216HW,2013-02-06 20:16:00,
2013-02-06 15:21:00,58.0,29.5,30.12,North,0,0.0,0.0,34,0.00,,,0.00,WUHU216HW,2013-02-06 20:21:00,
2013-02-06 15:26:00,58.0,28.9,30.13,North,0,0.0,0.0,33,0.00,,,0.00,WUHU216HW,2013-02-06 20:26:00,
2013-02-06 15:31:00,57.8,28.7,30.13,North,0,0.0,0.0,33,0.00,,,0.00,WUHU216HW,2013-02-06 20:31:00,
2013-02-06 15:36:00,57.6,29.3,30.13,North,0,0.0,0.0,34,0.00,,,0.00,WUHU216HW,2013-02-06 20:36:00,
2013-02-06 15:41:00,57.6,29.3,30.13,North,0,0.0,0.0,34,0.00,,,0.00,WUHU216HW,2013-02-06 20:41:00,
2013-02-06 15:46:00,57.6,29.3,30.13,North,0,0.0,0.0,34,0.00,,,0.00,WUHU216HW,2013-02-06 20:46:00,
2013-02-06 15:51:00,57.6,29.3,30.13,North,0,0.0,0.0,34,0.00,,,0.00,WUHU216HW,2013-02-06 20:51:00,
2013-02-06 15:56:00,57.6,29.3,30.13,North,0,0.0,0.0,34,0.00,,,0.00,WUHU216HW,2013-02-06 20:56:00,
2013-02-06 16:01:00,57.6,29.3,30.13,North,0,0.0,0.0,34,0.00,,,0.00,WUHU216HW,2013-02-06 21:01:00,
2013-02-06 16:06:00,57.4,30.5,30.13,North,0,0.0,0.0,36,0.00,,,0.00,WUHU216HW,2013-02-06 21:06:00,
2013-02-06 16:11:00,57.2,28.2,30.14,North,0,0.0,0.0,33,0.00,,,0.00,WUHU216HW,2013-02-06 21:11:00,
2013-02-06 16:16:00,57.2,30.3,30.14,North,0,0.0,0.0,36,0.00,,,0.00,WUHU216HW,2013-02-06 21:16:00,
2013-02-06 16:21:00,57.2,30.3,30.14,North,0,0.0,0.0,36,0.00,,,0.00,WUHU216HW,2013-02-06 21:21:00,
2013-02-06 16:26:00,57.1,30.2,30.14,North,0,0.0,0.0,36,0.00,,,0.00,WUHU216HW,2013-02-06 21:26:00,
2013-02-06 16:31:00,56.9,30.0,30.14,North,0,0.0,0.0,36,0.00,,,0.00,WUHU216HW,2013-02-06 21:31:00,
2013-02-06 16:36:00,56.7,29.8,30.14,North,0,0.0,0.0,36,0.00,,,0.00,WUHU216HW,2013-02-06 21:36:00,
2013-02-06 16:41:00,56.5,30.3,30.14,North,0,0.0,0.0,37,0.00,,,0.00,WUHU216HW,2013-02-06 21:41:00,
2013-02-06 16:46:00,56.5,29.7,30.14,North,0,0.0,0.0,36,0.00,,,0.00,WUHU216HW,2013-02-06 21:46:00,
2013-02-06 16:51:00,56.5,30.3,30.14,North,0,0.0,0.0,37,0.00,,,0.00,WUHU216HW,2013-02-06 21:51:00,
2013-02-06 16:56:00,56.2,30.8,30.14,North,0,0.0,0.0,38,0.00,,,0.00,WUHU216HW,2013-02-06 21:56:00,
2013-02-06 17:01:00,56.2,30.1,30.15,North,0,0.0,0.0,37,0.00,,,0.00,WUHU216HW,2013-02-06 22:01:00,
2013-02-06 17:06:00,56.0,29.9,30.15,North,0,0.0,0.0,37,0.00,,,0.00,WUHU216HW,2013-02-06 22:06:00,
2013-02-06 17:11:00,55.8,30.4,30.15,North,0,0.0,0.0,38,0.00,,,0.00,WUHU216HW,2013-02-06 22:11:00,
2013-02-06 17:16:00,55.6,30.2,30.15,North,0,0.0,0.0,38,0.00,,,0.00,WUHU216HW,2013-02-06 22:16:00,
2013-02-06 17:21:00,55.4,30.1,30.16,North,0,0.0,0.0,38,0.00,,,0.00,WUHU216HW,2013-02-06 22:21:00,
2013-02-06 17:26:00,55.3,30.0,30.16,North,0,0.0,0.0,38,0.00,,,0.00,WUHU216HW,2013-02-06 22:26:00,
2013-02-06 17:31:00,55.1,30.5,30.16,North,0,0.0,0.0,39,0.00,,,0.00,WUHU216HW,2013-02-06 22:31:00,
2013-02-06 17:36:00,54.7,30.2,30.17,North,0,0.0,0.0,39,0.00,,,0.00,WUHU216HW,2013-02-06 22:36:00,
2013-02-06 17:41:00,54.0,29.5,30.17,North,0,0.0,0.0,39,0.00,,,0.00,WUHU216HW,2013-02-06 22:41:00,
2013-02-06 17:46:00,53.8,30.1,30.17,North,0,0.0,0.0,40,0.00,,,0.00,WUHU216HW,2013-02-06 22:46:00,
2013-02-06 17:51:00,53.6,29.9,30.17,North,0,0.0,0.0,40,0.00,,,0.00,WUHU216HW,2013-02-06 22:51:00,
2013-02-06 17:56:00,53.3,30.2,30.18,North,0,0.0,0.0,41,0.00,,,0.00,WUHU216HW,2013-02-06 22:56:00,
2013-02-06 18:01:00,52.9,29.8,30.18,North,0,0.0,0.0,41,0.00,,,0.00,WUHU216HW,2013-02-06 23:01:00,
2013-02-06 18:06:00,52.4,29.4,30.18,North,0,0.0,0.0,41,0.00,,,0.00,WUHU216HW,2013-02-06 23:06:00,
2013-02-06 18:11:00,51.8,29.3,30.18,North,0,0.0,0.0,42,0.00,,,0.00,WUHU216HW,2013-02-06 23:11:00,
2013-02-06 18:16:00,50.9,29.2,30.18,North,0,0.0,0.0,43,0.00,,,0.00,WUHU216HW,2013-02-06 23:16:00,
2013-02-06 18:21:00,50.4,28.1,30.18,North,0,0.0,0.0,42,0.00,,,0.00,WUHU216HW,2013-02-06 23:21:00,
2013-02-06 18:26:00,50.0,28.4,30.18,North,0,0.0,0.0,43,0.00,,,0.00,WUHU216HW,2013-02-06 23:26:00,
2013-02-06 18:31:00,49.5,27.8,30.18,North,0,0.0,0.0,43,0.00,,,0.00,WUHU216HW,2013-02-06 23:31:00,
2013-02-06 18:36:00,49.0,27.3,30.18,North,0,0.0,0.0,43,0.00,,,0.00,WUHU216HW,2013-02-06 23:36:00,
2013-02-06 18:41:00,48.6,27.6,30.18,North,0,0.0,0.0,44,0.00,,,0.00,WUHU216HW,2013-02-06 23:41:00,
2013-02-06 18:46:00,48.2,27.2,30.18,North,0,0.0,0.0,44,0.00,,,0.00,WUHU216HW,2013-02-06 23:46:00,
2013-02-06 18:51:00,47.9,26.8,30.19,North,0,0.0,0.0,44,0.00,,,0.00,WUHU216HW,2013-02-06 23:51:00,
2013-02-06 18:56:00,47.9,27.4,30.19,North,0,0.0,0.0,45,0.00,,,0.00,WUHU216HW,2013-02-06 23:56:00,
2013-02-06 19:01:00,47.5,27.1,30.19,North,0,0.0,0.0,45,0.00,,,0.00,WUHU216HW,2013-02-07 00:01:00,
2013-02-06 19:06:00,47.2,26.7,30.20,North,0,0.0,0.0,45,0.00,,,0.00,WUHU216HW,2013-02-07 00:06:00,
2013-02-06 19:11:00,47.2,26.7,30.20,North,0,0.0,0.0,45,0.00,,,0.00,WUHU216HW,2013-02-07 00:11:00,
2013-02-06 19:16:00,47.2,27.3,30.20,North,0,0.0,0.0,46,0.00,,,0.00,WUHU216HW,2013-02-07 00:16:00,
2013-02-06 19:21:00,46.8,27.0,30.20,North,0,0.0,0.0,46,0.00,,,0.00,WUHU216HW,2013-02-07 00:21:00,
2013-02-06 19:26:00,46.6,26.8,30.20,North,0,0.0,0.0,46,0.00,,,0.00,WUHU216HW,2013-02-07 00:26:00,
2013-02-06 19:31:00,46.4,26.6,30.20,North,0,0.0,0.0,46,0.00,,,0.00,WUHU216HW,2013-02-07 00:31:00,
2013-02-06 19:36:00,46.3,27.0,30.20,North,0,0.0,0.0,47,0.00,,,0.00,WUHU216HW,2013-02-07 00:36:00,
2013-02-06 19:41:00,46.1,26.8,30.21,North,0,0.0,0.0,47,0.00,,,0.00,WUHU216HW,2013-02-07 00:41:00,
2013-02-06 19:46:00,46.1,26.8,30.21,North,0,0.0,0.0,47,0.00,,,0.00,WUHU216HW,2013-02-07 00:46:00,
2013-02-06 19:51:00,46.3,27.0,30.21,North,0,0.0,0.0,47,0.00,,,0.00,WUHU216HW,2013-02-07 00:51:00,
2013-02-06 19:56:00,46.3,27.0,30.21,North,0,0.0,0.0,47,0.00,,,0.00,WUHU216HW,2013-02-07 00:56:00,
2013-02-06 20:01:00,46.1,26.8,30.21,North,0,0.0,0.0,47,0.00,,,0.00,WUHU216HW,2013-02-07 01:01:00,
2013-02-06 20:06:00,45.9,26.7,30.21,North,0,0.0,0.0,47,0.00,,,0.00,WUHU216HW,2013-02-07 01:06:00,
2013-02-06 20:11:00,45.7,27.1,30.21,North,0,0.0,0.0,48,0.00,,,0.00,WUHU216HW,2013-02-07 01:11:00,
2013-02-06 20:16:00,45.7,27.1,30.21,North,0,0.0,0.0,48,0.00,,,0.00,WUHU216HW,2013-02-07 01:16:00,
2013-02-06 20:21:00,45.7,27.1,30.21,North,0,0.0,0.0,48,0.00,,,0.00,WUHU216HW,2013-02-07 01:21:00,
2013-02-06 20:26:00,45.5,26.9,30.22,North,0,0.0,0.0,48,0.00,,,0.00,WUHU216HW,2013-02-07 01:26:00,
2013-02-06 20:31:00,45.5,26.9,30.22,North,0,0.0,0.0,48,0.00,,,0.00,WUHU216HW,2013-02-07 01:31:00,
2013-02-06 20:36:00,45.7,27.1,30.22,North,0,0.0,0.0,48,0.00,,,0.00,WUHU216HW,2013-02-07 01:36:00,
2013-02-06 20:41:00,45.9,27.3,30.22,North,0,0.0,0.0,48,0.00,,,0.00,WUHU216HW,2013-02-07 01:41:00,
2013-02-06 20:46:00,46.3,27.0,30.22,North,0,0.0,0.0,47,0.00,,,0.00,WUHU216HW,2013-02-07 01:46:00,
2013-02-06 20:51:00,46.3,27.5,30.22,North,0,0.0,0.0,48,0.00,,,0.00,WUHU216HW,2013-02-07 01:51:00,
2013-02-06 20:56:00,46.3,27.0,30.23,North,0,0.0,0.0,47,0.00,,,0.00,WUHU216HW,2013-02-07 01:56:00,
2013-02-06 21:01:00,46.4,27.7,30.23,North,0,0.0,0.0,48,0.00,,,0.00,WUHU216HW,2013-02-07 02:01:00,
2013-02-06 21:06:00,46.3,27.0,30.22,North,0,0.0,0.0,47,0.00,,,0.00,WUHU216HW,2013-02-07 02:06:00,
2013-02-06 21:11:00,45.9,27.3,30.22,North,0,0.0,0.0,48,0.00,,,0.00,WUHU216HW,2013-02-07 02:11:00,
2013-02-06 21:44:00,45.5,26.9,30.22,North,0,0.0,0.0,48,0.00,,,0.00,WUHU216HW,2013-02-07 02:44:00,
2013-02-06 21:45:00,45.5,26.9,30.22,North,0,0.0,0.0,48,0.00,,,0.00,WUHU216HW,2013-02-07 02:45:00,
2013-02-06 21:50:00,45.5,26.9,30.22,North,0,0.0,0.0,48,0.00,,,0.00,WUHU216HW,2013-02-07 02:50:00,
2013-02-06 21:59:00,45.5,26.9,30.22,North,0,0.0,0.0,48,0.00,,,0.00,WUHU216HW,2013-02-07 02:59:00,
2013-02-06 22:00:00,45.5,26.9,30.22,North,0,0.0,0.0,48,0.00,,,0.00,WUHU216HW,2013-02-07 03:00:00,
2013-02-06 22:04:00,45.5,26.9,30.22,North,0,0.0,0.0,48,0.00,,,0.00,WUHU216HW,2013-02-07 03:04:00,
2013-02-06 22:09:00,45.5,26.9,30.22,North,0,0.0,0.0,48,0.00,,,0.00,WUHU216HW,2013-02-07 03:09:00,
2013-02-06 22:30:00,45.4,27.3,30.22,North,0,0.0,0.0,49,0.00,,,0.00,WUHU216HW,2013-02-07 03:30:00,
2013-02-06 22:35:00,45.4,27.3,30.22,North,0,0.0,0.0,49,0.00,,,0.00,WUHU216HW,2013-02-07 03:35:00,
2013-02-06 23:00:00,43.9,26.6,30.23,North,0,0.0,0.0,50,0.00,,,0.00,WUHU216HW,2013-02-07 04:00:00,
2013-02-06 23:05:00,43.7,26.4,30.23,North,0,0.0,0.0,50,0.00,,,0.00,WUHU216HW,2013-02-07 04:05:00,
2013-02-06 23:10:00,43.4,26.5,30.23,North,0,0.0,0.0,51,0.00,,,0.00,WUHU216HW,2013-02-07 04:10:00,
2013-02-06 23:15:00,43.0,26.2,30.23,North,0,0.0,0.0,51,0.00,,,0.00,WUHU216HW,2013-02-07 04:15:00,
2013-02-06 23:20:00,42.8,26.0,30.24,North,0,0.0,0.0,51,0.00,,,0.00,WUHU216HW,2013-02-07 04:20:00,
2013-02-06 23:25:00,42.7,26.3,30.24,North,0,0.0,0.0,52,0.00,,,0.00,WUHU216HW,2013-02-07 04:25:00,
2013-02-06 23:30:00,42.5,26.6,30.25,North,0,0.0,0.0,53,0.00,,,0.00,WUHU216HW,2013-02-07 04:30:00,
2013-02-06 23:35:00,42.3,25.9,30.26,North,0,0.0,0.0,52,0.00,,,0.00,WUHU216HW,2013-02-07 04:35:00,
2013-02-06 23:40:00,42.3,25.5,30.26,North,0,0.0,0.0,51,0.00,,,0.00,WUHU216HW,2013-02-07 04:40:00,
2013-02-06 23:45:00,42.1,25.8,30.26,North,0,0.0,0.0,52,0.00,,,0.00,WUHU216HW,2013-02-07 04:45:00,
2013-02-06 23:50:00,41.8,25.4,30.26,North,0,0.0,0.0,52,0.00,,,0.00,WUHU216HW,2013-02-07 04:50:00,
2013-02-06 23:55:00,41.4,25.0,30.26,North,0,0.0,0.0,52,0.00,,,0.00,WUHU216HW,2013-02-07 04:55:00,